Find Starlink 36167

NORAD ID: 67011 Int'l Des: 2025-293 Owner: SPXS Country: US Constellation: starlink operational
LEOCIRCULAR

Aktuelle Ansicht

3D-Globus wird geladen...

Über Starlink 36167

Beschreibung wird geladen...

Nächste Überflüge

Passes for default location (London). Set your location on the main map for personalized predictions.

Höhenverlauf

Loading altitude history...

Zweizeiliger Elementsatz

1 67011U 25293J 26146.27836953 .00006986 00000-0 59256-3 0 9997
2 67011 70.0011 258.6730 0003132 270.8793 89.2007 14.98340497 26511
Epoch: 26. Mai 2026 • Age: 11 hours

Aktueller Status

Höhe 592.9 km
Geschwindigkeit 7.56 km/s
Subsatellitenpunkt -61.18°S, 26.61°W
Startdatum 10. Dez. 2025
Alter 0.4 years
Typ internet

Technische Details

Klassifizierung Payload
Masse 575.00 kg
Trockenmasse 530.00 kg
Gesamtmasse 575.00 kg
Länge 0.30 m
Durchmesser 4.10 m
Spannweite 29.00 m
Form Box + pan
Hersteller SPXS
Bus-Typ Starlink V2MO
Phasenstatus In Orbit
Besitzer/Staat SPXS/US

Most Searched